Time,TemperatureF,DewpointF,PressureIn,WindDirection,WindDirectionDegrees,WindSpeedMPH,WindSpeedGustMPH,Humidity,HourlyPrecipIn,Conditions,Clouds,dailyrainin,SolarRadiationWatts/m^2,SoftwareType,DateUTC
2014-09-19 00:02:00,62.0,57.0,-100.00,WSW,246,17.0,22.0,85,0.00,,,0.00,1.000000,,2014-09-19 07:02:00,
2014-09-19 00:12:00,62.0,57.0,-100.00,SW,236,19.0,27.0,83,0.00,,,0.00,1.000000,,2014-09-19 07:12:00,
2014-09-19 00:43:00,62.0,57.0,-100.00,SW,236,19.0,27.0,83,0.00,,,0.00,1.000000,,2014-09-19 07:43:00,
2014-09-19 00:53:00,62.0,57.0,-100.00,SW,236,19.0,27.0,83,0.00,,,0.00,1.000000,,2014-09-19 07:53:00,
2014-09-19 01:02:00,62.0,57.0,-100.00,SW,236,19.0,27.0,83,0.00,,,0.00,1.000000,,2014-09-19 08:02:00,
2014-09-19 01:42:00,62.0,56.0,-100.00,WSW,240,19.0,26.0,81,0.00,,,0.00,1.000000,,2014-09-19 08:42:00,
2014-09-19 01:52:00,62.0,56.0,-100.00,WSW,240,19.0,26.0,81,0.00,,,0.00,1.000000,,2014-09-19 08:52:00,
2014-09-19 02:02:00,62.0,56.0,-100.00,WSW,240,19.0,26.0,81,0.00,,,0.00,1.000000,,2014-09-19 09:02:00,
2014-09-19 02:11:00,62.0,56.0,-100.00,WSW,240,19.0,26.0,81,0.00,,,0.00,1.000000,,2014-09-19 09:11:00,
2014-09-19 02:12:00,62.0,56.0,-100.00,WSW,237,15.0,23.0,80,0.00,,,0.00,1.000000,,2014-09-19 09:12:00,
2014-09-19 02:44:00,62.0,56.0,-100.00,WSW,237,15.0,23.0,80,0.00,,,0.00,1.000000,,2014-09-19 09:44:00,
2014-09-19 02:54:00,62.0,56.0,-100.00,WSW,237,15.0,23.0,80,0.00,,,0.00,1.000000,,2014-09-19 09:54:00,
2014-09-19 03:04:00,62.0,56.0,-100.00,WSW,237,15.0,23.0,80,0.00,,,0.00,1.000000,,2014-09-19 10:04:00,
2014-09-19 03:12:00,61.0,56.0,-100.00,WSW,239,22.0,28.0,85,0.00,,,0.00,1.000000,,2014-09-19 10:12:00,
2014-09-19 03:43:00,61.0,56.0,-100.00,WSW,239,22.0,28.0,85,0.00,,,0.00,1.000000,,2014-09-19 10:43:00,
2014-09-19 03:53:00,61.0,56.0,-100.00,WSW,239,22.0,28.0,85,0.00,,,0.00,1.000000,,2014-09-19 10:53:00,
2014-09-19 04:02:00,61.0,56.0,-100.00,WSW,239,22.0,28.0,85,0.00,,,0.00,1.000000,,2014-09-19 11:02:00,
2014-09-19 04:12:00,61.0,55.0,-100.00,WSW,237,21.0,30.0,82,0.00,,,0.00,1.000000,,2014-09-19 11:12:00,
2014-09-19 04:43:00,61.0,55.0,-100.00,WSW,237,21.0,30.0,82,0.00,,,0.00,1.000000,,2014-09-19 11:43:00,
2014-09-19 04:52:00,61.0,55.0,-100.00,WSW,237,21.0,30.0,82,0.00,,,0.00,1.000000,,2014-09-19 11:52:00,
2014-09-19 05:02:00,61.0,55.0,-100.00,WSW,237,21.0,30.0,82,0.00,,,0.00,1.000000,,2014-09-19 12:02:00,
2014-09-19 05:42:00,61.0,55.0,-100.00,SW,234,17.0,31.0,81,0.00,,,0.00,1.000000,,2014-09-19 12:42:00,
2014-09-19 05:52:00,61.0,55.0,-100.00,SW,234,17.0,31.0,81,0.00,,,0.00,1.000000,,2014-09-19 12:52:00,
2014-09-19 06:02:00,61.0,55.0,-100.00,SW,234,17.0,31.0,81,0.00,,,0.00,1.000000,,2014-09-19 13:02:00,
2014-09-19 06:11:00,61.0,55.0,-100.00,SW,234,17.0,31.0,81,0.00,,,0.00,1.000000,,2014-09-19 13:11:00,
2014-09-19 06:12:00,62.0,54.0,-100.00,WSW,240,16.0,24.0,76,0.00,,,0.00,1.000000,,2014-09-19 13:12:00,
2014-09-19 06:42:00,62.0,54.0,-100.00,WSW,240,16.0,24.0,76,0.00,,,0.00,1.000000,,2014-09-19 13:42:00,
2014-09-19 06:53:00,62.0,54.0,-100.00,WSW,240,16.0,24.0,76,0.00,,,0.00,1.000000,,2014-09-19 13:53:00,
2014-09-19 07:02:00,62.0,54.0,-100.00,WSW,240,16.0,24.0,76,0.00,,,0.00,1.000000,,2014-09-19 14:02:00,
2014-09-19 07:42:00,62.0,54.0,-100.00,SW,220,11.0,22.0,76,0.00,,,0.00,3.000000,,2014-09-19 14:42:00,
2014-09-19 07:52:00,62.0,54.0,-100.00,SW,220,11.0,22.0,76,0.00,,,0.00,3.000000,,2014-09-19 14:52:00,
2014-09-19 08:02:00,62.0,54.0,-100.00,SW,220,11.0,22.0,76,0.00,,,0.00,3.000000,,2014-09-19 15:02:00,
2014-09-19 08:11:00,62.0,54.0,-100.00,SW,220,11.0,22.0,76,0.00,,,0.00,3.000000,,2014-09-19 15:11:00,
2014-09-19 09:12:00,69.0,55.0,-100.00,WSW,239,8.0,12.0,61,0.00,,,0.00,265.000000,,2014-09-19 16:12:00,
2014-09-19 09:54:00,69.0,55.0,-100.00,WSW,239,8.0,12.0,61,0.00,,,0.00,265.000000,,2014-09-19 16:54:00,
2014-09-19 10:03:00,69.0,55.0,-100.00,WSW,239,8.0,12.0,61,0.00,,,0.00,265.000000,,2014-09-19 17:03:00,
2014-09-19 10:12:00,72.0,55.0,-100.00,WSW,250,9.0,13.0,55,0.00,,,-99.99,424.000000,,2014-09-19 17:12:00,
2014-09-19 10:44:00,72.0,55.0,-100.00,WSW,250,9.0,13.0,55,0.00,,,-99.99,424.000000,,2014-09-19 17:44:00,
2014-09-19 10:53:00,72.0,55.0,-100.00,WSW,250,9.0,13.0,55,0.00,,,-99.99,424.000000,,2014-09-19 17:53:00,
2014-09-19 11:02:00,72.0,55.0,-100.00,WSW,250,9.0,13.0,55,0.00,,,-99.99,424.000000,,2014-09-19 18:02:00,
2014-09-19 11:42:00,72.0,56.0,-100.00,WSW,258,12.0,15.0,58,0.00,,,0.00,576.000000,,2014-09-19 18:42:00,
2014-09-19 11:52:00,72.0,56.0,-100.00,WSW,258,12.0,15.0,58,0.00,,,0.00,576.000000,,2014-09-19 18:52:00,
2014-09-19 12:02:00,72.0,56.0,-100.00,WSW,258,12.0,15.0,58,0.00,,,0.00,576.000000,,2014-09-19 19:02:00,
2014-09-19 12:11:00,72.0,56.0,-100.00,WSW,258,12.0,15.0,58,0.00,,,0.00,576.000000,,2014-09-19 19:11:00,
2014-09-19 12:12:00,76.0,54.0,-100.00,WSW,248,11.0,16.0,47,0.00,,,0.00,692.000000,,2014-09-19 19:12:00,
2014-09-19 12:42:00,76.0,54.0,-100.00,WSW,248,11.0,16.0,47,0.00,,,0.00,692.000000,,2014-09-19 19:42:00,
2014-09-19 12:52:00,76.0,54.0,-100.00,WSW,248,11.0,16.0,47,0.00,,,0.00,692.000000,,2014-09-19 19:52:00,
2014-09-19 13:02:00,76.0,54.0,-100.00,WSW,248,11.0,16.0,47,0.00,,,0.00,692.000000,,2014-09-19 20:02:00,
2014-09-19 13:42:00,80.0,53.0,-100.00,WNW,288,8.0,15.0,40,0.00,,,0.00,753.000000,,2014-09-19 20:42:00,
2014-09-19 13:52:00,80.0,53.0,-100.00,WNW,288,8.0,15.0,40,0.00,,,0.00,753.000000,,2014-09-19 20:52:00,
2014-09-19 14:02:00,80.0,53.0,-100.00,WNW,288,8.0,15.0,40,0.00,,,0.00,753.000000,,2014-09-19 21:02:00,
2014-09-19 14:11:00,80.0,53.0,-100.00,WNW,288,8.0,15.0,40,0.00,,,0.00,753.000000,,2014-09-19 21:11:00,